Home > Weather > Lloydminster > Past weeks

Flag for Canada Past Weather in Lloydminster, Alberta, Canada — Yesterday and Last 2 Weeks

Now
77 °F

Passing clouds.


Feels Like: 78 °F
Forecast: 52 / 77 °F
Wind: 8 mph from South

Location: Lloydminister

Current Time: Jul 26, 2016 at 4:01:49 PM

Latest Report: Jul 26, 2016 at 3:00 PM


Visibility: 15 mi

Pressure: 30.11 "Hg (27.96 "Hg at 648m altitude)

Humidity: 44%

Dew Point: 54 °F

Location of LloydminsterLocation

Past Weather in Lloydminster — Graph

°F

Lloydminster Temperature Yesterday

Maximum temperature yesterday: 73 °F (at 4:00 PM)
Minimum temperature yesterday: 55 °F (at 4:00 AM)
Average temperature yesterday: 65 °F

High & Low Weather Summary for the Past Weeks

 TemperatureHumidityPressure
High81 °F (Jul 19, 3:00 PM)100% (Jul 15, 6:00 AM)30.20 "Hg (Jul 15, 6:00 AM)
Low50 °F (Jul 16, 5:00 AM)38% (Jul 25, 5:00 PM)29.65 "Hg (Jul 11, 8:00 PM)
Average65 °F72%29.95 "Hg
* Reported Jul 11 2:00 PM — Jul 26 2:00 PM, Lloydminster, Weather by CustomWeather, © 2016

Note: Actual official high and low records may vary slightly from our data, if they occured in-between our weather recording intervals... More about our weather records

Advertising

Lloydminster Weather History for the Previous 24 Hours

Scroll right to see more
 ConditionsComfort  
Time TempWeatherWind HumidityBarometerVisibility
2:00 PM
Tue, Jul 26
77 °FPassing clouds.13 mph47%30.12 "Hg15 mi
1:00 PM75 °FPassing clouds.7 mph47%30.12 "Hg15 mi
12:00 PM73 °FPassing clouds.8 mph53%30.13 "Hg15 mi
11:00 AM72 °FPassing clouds.9 mph53%30.13 "Hg15 mi
10:00 AM70 °FPassing clouds.8 mph57%30.13 "Hg15 mi
9:00 AM68 °FPassing clouds.8 mph60%30.13 "Hg15 mi
8:00 AM63 °FScattered clouds.5 mph73%30.11 "Hg15 mi
7:00 AM61 °FBroken clouds.7 mph77%30.11 "Hg15 mi
6:00 AM55 °FClear.10 mph82%30.11 "Hg9 mi
5:00 AM54 °FClear.2 mph82%30.11 "Hg9 mi
4:00 AM54 °FClear.6 mph82%30.11 "Hg9 mi
3:00 AM55 °FClear.8 mph82%30.11 "Hg9 mi
2:00 AM55 °FClear.8 mph82%30.10 "Hg9 mi
1:00 AM57 °FClear.5 mph72%30.10 "Hg9 mi
12:00 AM57 °FClear.3 mph82%30.10 "Hg9 mi
11:00 PM
Mon, Jul 25
59 °FClear.2 mph72%30.10 "Hg9 mi
10:00 PM59 °FPassing clouds.No wind77%30.10 "Hg15 mi
9:00 PM66 °FScattered clouds.2 mph64%30.08 "Hg15 mi
8:00 PM70 °FScattered clouds.5 mph50%30.08 "Hg15 mi
7:00 PM72 °FScattered clouds.6 mph44%30.08 "Hg15 mi
6:00 PM73 °FScattered clouds.8 mph41%30.08 "Hg15 mi
5:00 PM73 °FPassing clouds.10 mph38%30.08 "Hg15 mi
4:00 PM73 °FPassing clouds.9 mph41%30.09 "Hg15 mi
Weather by CustomWeather, © 2016

See weather overviewHow to use our weather pages